Tracking 26006 objects as of 17-Aug-2022
HD Live streaming from Space Station
objects crossing your sky now

SL-12 R/B(AUX MOTOR)

Track SL-12 R/B(AUX MOTOR) now!
10-day predictions


NORAD ID: 23403
Int'l Code: 1994-076H
Perigee: 475.2 km
Apogee: 18,876.4 km
Inclination: 65.1 °
Period: 337.2 minutes
Semi major axis: 16046 km
RCS: 0.7427 m2 (medium)
Launch date: November 20, 1994
Source: Commonwealth of Independent States (former USSR) (CIS)
Launch site: TYURATAM MISSILE AND SPACE COMPLEX (TTMTR)

Note: This is a ROCKET BODY
aabbcc
Your satellite tracking list
Your tracking list is empty




NASA's NSSDC Master Catalog

Two Line Element Set (TLE):
1 23403U 94076H   22228.69883053  .00000079  00000-0  25440-3 0  9990
2 23403  65.0786 104.1904 5733604 184.4802 343.6976  4.27089917430844
Source of the keplerian elements: AFSPC